{"data":{"norad_id":57930,"epoch":"2026-05-25T04:00:03.998880Z","epoch_age_seconds":63662,"freshness":"FRESH","line1":"1 57930U 23147T   26145.16671295  .00004246  00000+0  32864-4 0  9998","line2":"2 57930  42.9925 186.5222 0016912 219.8435 309.8193 15.73325329  5901","mean_motion":15.73325329,"eccentricity":0.0016912,"inclination_deg":42.9925,"raan_deg":186.5222,"arg_perigee_deg":219.8435,"mean_anomaly_deg":309.8193,"bstar":3.2864e-5,"rev_number":590,"period_min":91.525889366776,"perigee_km":338.02326674375,"apogee_km":360.77849086502,"semimajor_km":6727.5378788044,"source":"CELESTRAK","updated_at":"2026-05-25T13:38:18.459090Z"}}